SCP
1 1 1 1 1 1 1 0 0 0 0 0 0 0 1 1 1 0 0 0 0 0 0 0 0 0 0 0 0 0 0 0 0 0 0 0 0 0 0 0 0 0 0
1 1 1 1 1 1 1 1 0 0 0 0 0 0 0 0 0 0 0 0 0 0 0 0 0 0 0 0 0 0 0 0 0 0 0 0 0 0 0 0 0 0 0
1 1 1 2 1 1 1 1 1 1 0 0 0 0 0 0 0 0 0 0 0 0 0 0 0 0 0 0 0 0 0 0 0 0 0 0 0 0 0 0 0 0 0
1 1 1 2 1 1 1 1 1 1 0 0 0 0 0 0 0 0 0 0 0 0 0 0 0 0 0 0 0 0 0 0 0 0 0 0 0 0 0 0 0 0 0
2 2 2 2 1 1 1 1 1 1 1 0 0 0 0 0 0 0 0 0 0 0 0 0 0 0 0 0 0 0 0 0 0 0 0 0 0 0 0 0 0 0 0
2 2 2 2 2 1 1 1 1 1 0 0 0 0 0 0 0 0 0 0 0 0 0 0 0 0 0 0 0 0 0 0 0 0 0 0 0 0 0 0 0 0 0
3 3 2 2 2 1 1 1 1 1 0 0 0 0 0 0 0 0 0 0 0 0 0 0 0 0 0 0 0 0 0 0 0 0 0 0 0 0 0 0 0 0 0
4 3 2 2 2 2 1 1 1 1 0 0 0 0 0 0 0 0 0 0 0 0 0 0 0 0 0 0 0 0 0 0 0 0 0 0 0 0 0 0 0 0 0
5 4 3 2 2 2 1 1 1 1 1 0 0 0 0 0 0 0 0 0 0 0 0 0 0 0 0 0 0 0 0 0 0 0 0 0 0 0 0 0 0 0 0
5 4 3 2 2 2 2 1 1 1 1 1 0 0 0 0 0 0 0 0 0 0 0 0 0 0 0 0 0 0 0 0 0 0 0 0 0 0 0 0 0 0 0
6 4 3 2 2 2 2 1 1 1 1 0 0 0 0 0 0 0 0 0 0 0 0 0 0 0 0 0 0 0 0 0 0 0 0 0 0 0 0 0 0 0 0
6 4 3 3 2 2 1 1 1 1 1 1 0 0 0 0 0 0 0 0 0 0 0 0 0 0 0 0 0 0 0 0 0 0 0 0 0 0 0 0 0 0 0
7 6 4 3 3 2 2 1 1 1 1 1 1 1 0 0 1 1 0 0 0 0 0 0 0 0 0 0 0 0 0 0 0 0 0 0 0 0 0 0 0 0 0
7 7 5 4 4 3 2 2 2 1 1 1 1 1 1 1 1 1 0 0 0 0 0 0 0 0 0 0 0 0 0 0 0 0 0 0 1 1 0 0 0 0 0
7 6 6 5 5 4 3 2 2 2 1 1 1 1 1 1 1 1 0 0 0 0 0 0 0 0 0 0 0 0 0 0 0 0 0 0 0 0 0 0 0 0 0
6 7 7 6 5 4 3 3 2 2 2 2 2 1 1 1 1 1 1 0 0 0 1 0 0 0 0 0 0 0 0 0 0 0 0 0 0 0 0 0 0 0 0
7 8 8 6 5 3 3 2 2 2 2 2 2 2 1 1 1 1 1 1 1 1 1 1 0 0 0 0 0 0 0 0 0 0 0 0 0 0 0 0 0 0 0
8 9 8 6 4 3 2 2 2 2 2 3 3 2 2 1 1 1 1 1 1 1 1 1 0 0 0 0 0 0 0 0 0 0 0 0 0 0 0 0 0 0 0
7 8 7 5 4 3 2 2 2 2 3 3 3 2 2 2 1 1 1 1 1 1 1 1 1 1 1 1 0 0 0 1 1 0 0 0 1 0 0 0 0 0 0
7 7 7 6 5 4 3 2 2 2 3 3 3 2 2 2 1 1 1 1 1 1 1 1 1 1 1 1 0 0 0 1 1 1 0 0 1 1 1 1 1 1 1
8 8 7 6 6 5 3 3 3 3 3 4 4 3 2 2 2 2 1 2 2 2 2 1 1 1 1 1 1 0 0 1 1 1 1 1 1 1 1 1 1 1 1
9 9 8 7 6 5 4 4 3 3 4 5 4 3 3 2 2 2 2 2 2 2 2 2 2 1 1 1 1 1 0 1 1 1 1 1 1 1 1 1 1 1 1
8 8 8 8 6 5 5 4 4 4 4 4 4 3 3 2 2 2 2 2 2 2 2 2 2 2 2 2 1 1 1 1 1 1 1 1 1 1 1 1 1 2 2
6 6 6 6 5 5 5 5 4 4 4 4 3 3 3 2 2 2 2 2 2 2 2 2 2 2 2 2 2 2 1 1 1 1 0 1 1 1 1 1 1 1 2
4 4 4 4 4 5 5 5 4 4 4 4 3 3 3 3 2 2 2 2 2 2 2 2 2 2 2 2 3 3 3 2 1 1 1 1 1 1 1 1 1 1 1
3 3 3 4 4 4 4 4 4 4 4 4 4 4 3 3 2 2 2 2 2 2 2 2 2 2 2 3 3 4 3 2 2 1 1 1 1 1 1 1 1 1 1
Wind_Speed
16 16 16 14 14 14 14 14 14 14 13 13 13 12 12 12 12 12 12 11 11 11 10 10 10 10 11 12 12 12 13 14 15 16 16 16 16 14 13 14 15 12 16
20 17 16 15 15 14 14 14 14 14 13 13 12 12 11 11 12 11 11 11 11 11 11 11 11 11 11 12 12 12 12 13 14 15 16 15 14 13 11 11 14 11 15
20 18 16 15 15 15 14 14 14 14 13 13 12 11 11 11 11 11 11 11 11 11 11 11 12 11 12 12 12 11 11 11 12 13 14 9 10 13 14 15 16 15 15
20 17 16 16 15 15 14 14 14 14 13 12 11 11 11 11 11 11 11 11 10 11 11 12 12 12 12 12 11 10 10 10 10 10 6 8 8 13 14 15 15 15 14
19 17 18 17 17 16 15 14 14 14 13 12 11 11 11 10 11 11 11 10 10 11 11 12 12 12 11 11 10 9 8 8 8 7 7 8 8 12 14 14 14 14 14
19 18 18 17 17 16 15 14 14 13 13 12 11 11 10 10 11 11 11 11 11 11 12 12 12 12 11 10 8 7 6 5 4 6 8 9 8 11 13 13 14 13 13
20 19 18 17 17 16 15 14 14 13 12 12 11 11 10 10 11 11 11 11 11 11 12 12 12 11 10 8 7 5 3 2 3 7 8 8 8 11 13 13 13 12 12
20 19 17 17 17 16 15 14 14 13 12 11 11 10 11 10 10 10 11 10 11 11 11 11 11 11 9 8 5 3 0 4 5 10 10 9 10 11 12 12 12 12 12
20 19 16 15 14 15 14 14 13 13 12 11 11 11 11 11 11 11 10 10 10 10 11 11 10 10 8 7 4 1 2 4 2 7 11 8 11 12 12 12 12 12 11
18 17 15 15 13 12 12 13 13 13 12 11 11 11 11 11 11 11 10 9 10 10 10 10 10 9 8 6 4 1 3 5 2 9 8 9 12 12 12 12 11 11 11
15 15 14 15 13 12 12 12 12 12 11 11 10 11 10 7 8 8 11 10 9 9 9 9 9 9 8 6 4 2 3 1 4 7 7 12 12 12 12 11 10 10 10
14 14 12 14 13 12 10 10 7 8 9 8 7 8 6 4 5 8 11 10 9 9 9 8 8 8 6 4 4 4 2 1 4 7 8 13 12 12 11 11 10 10 10
13 11 11 12 10 10 8 8 5 4 6 6 7 6 4 4 5 7 5 6 6 8 6 7 7 5 4 2 3 3 2 2 3 6 8 12 11 11 11 10 10 10 10
12 12 11 10 7 6 7 6 5 5 5 5 5 6 5 2 3 4 4 5 5 3 3 3 3 4 4 3 3 2 1 1 4 6 7 12 11 10 10 10 9 9 9
10 11 10 9 7 5 4 4 5 4 6 6 5 4 5 4 3 4 3 3 4 3 4 3 2 3 3 2 2 3 3 3 5 6 6 12 11 9 9 9 9 9 9
10 10 10 9 8 6 4 2 2 4 4 6 6 6 5 4 4 3 3 2 2 3 3 3 3 3 2 2 2 3 3 3 5 7 7 8 10 9 9 9 9 9 9
10 10 10 10 9 7 6 5 3 3 5 5 5 6 4 4 5 3 3 3 3 3 3 2 3 3 3 4 3 3 2 2 4 6 7 6 6 8 9 9 9 9 9
9 9 9 10 10 8 6 4 3 3 3 4 5 5 5 5 5 3 3 3 3 3 3 2 2 3 2 2 3 2 3 3 3 4 5 6 6 7 8 10 10 9 9
9 9 8 7 10 9 7 5 3 2 2 3 4 4 5 5 6 3 2 3 3 3 3 4 2 2 2 2 3 3 2 3 3 4 4 6 6 6 6 9 11 10 11
10 9 8 8 8 8 6 4 2 2 2 3 4 4 5 5 6 4 3 4 3 2 2 2 3 2 1 1 2 3 3 4 4 3 4 5 6 7 7 8 7 8 12
10 10 10 9 9 7 6 5 4 4 3 3 4 6 6 5 6 3 2 4 2 2 3 3 3 3 1 1 1 1 1 3 4 4 3 3 5 5 6 8 7 6 6
11 10 9 9 9 9 6 4 4 3 3 3 3 5 6 5 5 6 3 3 3 2 2 2 2 1 2 2 2 1 0 1 1 4 4 4 4 4 6 9 7 7 6
11 10 9 9 9 9 8 5 4 3 2 3 3 4 5 5 5 4 5 3 3 3 3 3 3 3 1 1 2 2 1 1 2 1 4 3 3 3 4 5 7 7 7
11 10 8 8 9 8 8 8 8 6 5 5 4 4 4 5 5 4 5 4 3 2 4 4 4 3 2 2 1 2 2 2 1 1 1 2 4 4 3 4 5 5 5
10 9 9 9 9 9 8 8 8 7 5 4 4 5 5 4 5 5 5 4 3 3 4 3 3 2 2 2 2 1 2 2 3 2 2 2 1 3 3 3 3 3 4
9 9 9 9 8 9 8 7 7 7 6 6 5 6 5 4 5 6 6 4 4 3 4 3 3 3 2 1 1 1 1 2 2 2 2 3 2 2 2 2 3 4 4
Wind_Direction
127 130 131 127 124 124 124 124 122 118 114 110 105 101 97 93 90 89 90 92 93 97 102 105 104 102 101 99 97 96 95 94 96 96 98 98 98 101 106 111 107 100 104
127 130 131 129 127 125 124 125 124 121 117 113 110 106 102 99 96 95 95 94 94 97 101 105 105 104 105 105 103 103 103 102 105 106 104 99 97 98 104 106 102 108 108
125 130 132 129 128 126 125 125 125 122 119 116 114 111 107 104 102 101 99 97 97 99 101 105 106 108 108 110 111 112 113 115 119 119 113 103 98 96 99 102 106 108 108
128 136 133 131 129 128 127 126 125 124 122 119 117 113 109 106 106 105 102 100 99 101 103 105 108 109 109 114 117 118 122 126 129 131 119 113 105 103 104 107 108 108 109
130 131 130 135 132 131 130 129 127 126 125 123 120 115 111 109 108 106 104 102 101 102 103 105 108 110 111 117 121 125 131 139 147 137 101 94 94 109 108 110 112 111 111
130 129 134 137 135 134 133 131 129 129 128 126 123 120 116 113 109 106 104 102 101 102 104 107 110 111 113 118 124 131 140 153 175 124 112 108 108 114 112 112 111 112 112
132 130 137 138 137 136 135 134 133 132 131 129 127 123 119 116 113 110 108 105 105 106 107 110 112 114 116 119 126 135 148 190 197 114 109 106 112 118 115 113 112 112 112
130 130 135 139 139 139 139 137 137 136 136 134 130 126 123 120 116 114 112 110 110 111 111 113 115 116 117 120 126 132 266 295 126 112 108 108 119 120 119 116 115 116 115
129 131 141 143 143 143 143 142 142 141 139 136 134 133 129 127 123 119 116 115 115 117 117 117 119 120 121 125 130 147 291 319 72 115 113 113 123 124 123 122 121 121 119
129 136 146 148 146 149 147 147 145 144 142 142 143 142 140 139 136 132 128 121 122 123 125 125 125 127 129 136 149 214 307 317 114 106 107 120 126 127 126 125 124 125 124
133 141 151 147 151 154 152 149 150 150 149 151 154 155 155 159 151 152 126 131 132 133 133 135 134 139 144 154 173 228 302 293 91 95 104 126 130 130 130 130 128 128 128
144 148 149 146 155 157 150 146 159 163 159 175 163 168 181 168 151 134 132 140 144 146 148 151 151 158 170 166 178 208 249 184 110 106 118 132 133 134 135 136 136 135 133
150 148 147 147 156 152 139 157 168 163 160 183 169 169 166 155 140 133 148 149 158 164 170 159 176 187 188 176 162 199 223 133 108 109 128 134 135 137 139 141 141 143 142
154 150 148 143 143 140 148 160 161 161 163 170 158 171 156 160 153 144 152 163 170 172 168 173 183 174 168 171 162 163 122 91 108 112 135 138 141 143 145 148 151 151 151
155 150 143 139 133 131 134 164 167 161 168 158 155 177 162 160 152 137 145 160 162 154 165 170 180 142 134 138 143 133 100 89 118 124 134 147 148 151 154 156 159 161 160
152 147 141 138 137 141 150 184 167 168 159 151 158 167 178 146 131 135 144 147 146 157 153 157 156 138 156 146 146 137 140 136 119 127 141 151 158 161 164 168 169 169 170
151 149 145 147 150 159 170 189 185 181 167 158 148 154 169 144 137 147 146 169 162 143 135 153 153 160 172 158 155 152 147 137 134 137 145 156 163 172 175 176 177 178 180
150 152 161 164 159 167 176 192 193 204 163 145 144 151 163 144 147 159 163 172 157 154 164 160 183 167 158 151 155 175 157 143 145 153 160 163 164 172 181 186 183 185 189
155 159 169 161 162 170 176 185 212 194 148 142 146 149 163 161 157 173 160 139 167 171 174 175 157 154 153 160 174 174 169 161 163 184 174 169 167 168 170 184 189 191 198
161 164 168 171 166 167 170 174 199 204 172 159 149 150 159 169 161 180 168 157 186 170 156 108 120 117 120 175 212 170 183 171 176 183 188 176 169 179 174 173 182 199 206
166 171 173 178 171 167 168 172 180 193 191 183 166 156 164 178 159 184 175 152 199 160 155 150 148 154 188 179 156 181 212 190 179 178 196 183 179 178 170 170 182 185 196
173 175 177 180 174 173 168 170 180 178 190 193 171 155 169 173 163 181 178 177 171 147 157 152 135 153 202 183 172 150 241 274 226 197 181 187 184 172 179 183 184 177 187
177 180 183 181 178 178 168 168 175 175 191 188 173 162 171 172 181 185 166 194 164 172 162 179 168 182 205 208 189 160 171 189 214 229 194 180 171 176 189 179 183 184 186
177 177 180 178 175 175 173 178 179 186 191 190 182 163 171 179 182 175 175 180 176 176 156 193 185 184 197 218 209 208 197 149 161 197 245 183 177 180 201 190 182 175 173
174 174 176 176 176 176 181 183 188 191 191 184 176 162 173 181 192 183 177 175 182 187 169 186 150 185 209 216 210 202 210 190 203 177 194 201 189 184 184 175 154 155 154
167 170 170 172 176 176 184 187 197 196 188 180 176 175 184 181 196 191 180 177 187 193 165 170 167 192 213 255 295 280 233 212 217 183 166 180 183 197 163 146 143 141 135